TimeEDT,TemperatureF,Dew PointF,Humidity,Sea Level PressureIn,VisibilityMPH,Wind Direction,Wind SpeedMPH,Gust SpeedMPH,PrecipitationIn,Events,Conditions,WindDirDegrees,DateUTC
12:15 AM,65.7,52.2,62,29.91,10.0,NW,3.5,-,N/A,,Clear,310,2013-09-14 04:15:00
12:35 AM,65.1,52.3,63,29.92,10.0,NW,4.6,-,N/A,,Clear,320,2013-09-14 04:35:00
12:55 AM,64.6,52.2,64,29.93,10.0,NW,3.5,-,N/A,,Clear,320,2013-09-14 04:55:00
1:15 AM,64.6,52.3,64,29.93,10.0,NW,3.5,-,N/A,,Clear,320,2013-09-14 05:15:00
1:35 AM,63.5,53.2,69,29.93,10.0,NW,3.5,-,N/A,,Clear,310,2013-09-14 05:35:00
1:55 AM,63.5,52.7,68,29.94,10.0,NW,4.6,-,N/A,,Clear,310,2013-09-14 05:55:00
2:15 AM,62.8,51.8,67,29.94,10.0,NW,5.8,-,N/A,,Clear,310,2013-09-14 06:15:00
2:35 AM,63.1,51.3,65,29.94,10.0,NW,5.8,-,N/A,,Mostly Cloudy,320,2013-09-14 06:35:00
2:55 AM,63.1,50.5,63,29.95,10.0,NW,5.8,-,N/A,,Overcast,310,2013-09-14 06:55:00
3:15 AM,63.1,50.0,62,29.96,10.0,NNW,4.6,-,N/A,,Overcast,330,2013-09-14 07:15:00
3:35 AM,62.6,49.8,63,29.96,10.0,NW,5.8,-,N/A,,Mostly Cloudy,320,2013-09-14 07:35:00
3:55 AM,62.6,49.5,62,29.96,10.0,NW,4.6,-,N/A,,Overcast,320,2013-09-14 07:55:00
4:15 AM,62.4,49.1,62,29.97,10.0,NNW,4.6,-,N/A,,Overcast,340,2013-09-14 08:15:00
4:35 AM,61.9,49.3,63,29.97,10.0,NW,4.6,-,N/A,,Overcast,310,2013-09-14 08:35:00
4:55 AM,61.3,49.3,65,29.98,10.0,Calm,Calm,-,N/A,,Mostly Cloudy,0,2013-09-14 08:55:00
5:15 AM,61.2,49.3,65,29.99,10.0,NNW,3.5,-,N/A,,Mostly Cloudy,330,2013-09-14 09:15:00
5:35 AM,61.2,48.7,64,30.00,10.0,NNW,4.6,-,N/A,,Mostly Cloudy,340,2013-09-14 09:35:00
5:55 AM,60.8,48.2,63,30.01,10.0,North,3.5,-,N/A,,Mostly Cloudy,350,2013-09-14 09:55:00
6:15 AM,60.3,48.4,65,30.00,10.0,NNW,3.5,-,N/A,,Mostly Cloudy,330,2013-09-14 10:15:00
6:35 AM,59.5,48.2,66,30.01,10.0,NNW,3.5,-,N/A,,Scattered Clouds,340,2013-09-14 10:35:00
6:55 AM,59.2,48.2,67,30.02,10.0,NNW,4.6,-,N/A,,Scattered Clouds,330,2013-09-14 10:55:00
7:15 AM,59.0,47.7,66,30.03,10.0,NW,8.1,-,N/A,,Scattered Clouds,310,2013-09-14 11:15:00
7:35 AM,59.4,48.0,66,30.04,10.0,NW,5.8,-,N/A,,Scattered Clouds,320,2013-09-14 11:35:00
7:55 AM,59.9,46.9,62,30.05,10.0,NW,8.1,-,N/A,,Scattered Clouds,320,2013-09-14 11:55:00
8:15 AM,60.8,46.6,59,30.06,10.0,NW,9.2,-,N/A,,Scattered Clouds,310,2013-09-14 12:15:00
8:35 AM,61.0,45.5,57,30.07,10.0,NW,10.4,-,N/A,,Clear,310,2013-09-14 12:35:00
8:55 AM,61.7,45.5,55,30.07,10.0,NNW,9.2,-,N/A,,Clear,330,2013-09-14 12:55:00
9:15 AM,62.6,46.4,55,30.08,10.0,NNW,8.1,-,N/A,,Clear,330,2013-09-14 13:15:00
9:35 AM,63.3,47.1,56,30.08,10.0,NNW,8.1,-,N/A,,Clear,340,2013-09-14 13:35:00
9:55 AM,64.2,47.1,54,30.08,10.0,North,8.1,-,N/A,,Clear,360,2013-09-14 13:55:00
10:15 AM,65.3,47.1,52,30.09,10.0,NNW,6.9,-,N/A,,Clear,330,2013-09-14 14:15:00
10:35 AM,66.2,46.9,50,30.09,10.0,NNW,4.6,-,N/A,,Clear,330,2013-09-14 14:35:00
10:55 AM,66.7,46.9,49,30.09,10.0,NW,5.8,-,N/A,,Clear,320,2013-09-14 14:55:00
11:15 AM,67.3,46.9,48,30.09,10.0,NNW,8.1,-,N/A,,Clear,340,2013-09-14 15:15:00
11:35 AM,68.0,47.3,47,30.09,10.0,WNW,6.9,10.4,N/A,,Clear,290,2013-09-14 15:35:00
11:55 AM,69.1,47.8,47,30.09,10.0,North,6.9,-,N/A,,Clear,360,2013-09-14 15:55:00
12:15 PM,69.4,47.3,45,30.09,10.0,NW,5.8,-,N/A,,Clear,320,2013-09-14 16:15:00
12:35 PM,70.2,47.3,44,30.09,10.0,NNW,4.6,-,N/A,,Clear,330,2013-09-14 16:35:00
12:55 PM,70.7,47.1,43,30.09,10.0,NNW,4.6,-,N/A,,Clear,330,2013-09-14 16:55:00
1:15 PM,70.7,46.0,41,30.09,10.0,North,6.9,-,N/A,,Clear,10,2013-09-14 17:15:00
1:35 PM,71.4,46.8,41,30.08,10.0,North,8.1,-,N/A,,Scattered Clouds,360,2013-09-14 17:35:00
1:55 PM,71.8,45.9,39,30.08,10.0,WNW,5.8,-,N/A,,Clear,290,2013-09-14 17:55:00
2:15 PM,72.5,46.4,39,30.08,10.0,NW,6.9,-,N/A,,Clear,310,2013-09-14 18:15:00
2:35 PM,73.0,46.6,39,30.08,10.0,NNW,3.5,-,N/A,,Clear,330,2013-09-14 18:35:00
2:55 PM,72.7,45.7,38,30.08,10.0,NNW,3.5,-,N/A,,Clear,330,2013-09-14 18:55:00
3:15 PM,73.8,45.9,37,30.08,10.0,NW,5.8,-,N/A,,Clear,310,2013-09-14 19:15:00
3:35 PM,74.1,46.6,37,30.08,10.0,North,4.6,-,N/A,,Scattered Clouds,360,2013-09-14 19:35:00
3:55 PM,73.9,46.0,37,30.07,10.0,North,4.6,-,N/A,,Scattered Clouds,350,2013-09-14 19:55:00
4:15 PM,73.8,45.3,36,30.07,10.0,NW,5.8,-,N/A,,Scattered Clouds,310,2013-09-14 20:15:00
4:35 PM,73.4,44.4,35,30.08,10.0,WNW,4.6,-,N/A,,Clear,290,2013-09-14 20:35:00
4:55 PM,72.5,44.2,36,30.08,10.0,NW,3.5,-,N/A,,Clear,320,2013-09-14 20:55:00
5:15 PM,73.2,45.0,36,30.08,10.0,NW,5.8,-,N/A,,Clear,320,2013-09-14 21:15:00
5:35 PM,72.5,43.2,35,30.08,10.0,NW,3.5,-,N/A,,Clear,320,2013-09-14 21:35:00
5:55 PM,72.5,45.1,37,30.09,10.0,WNW,4.6,-,N/A,,Clear,290,2013-09-14 21:55:00
6:15 PM,70.9,45.1,40,30.10,10.0,NW,3.5,-,N/A,,Clear,320,2013-09-14 22:15:00
6:35 PM,70.3,45.5,41,30.10,10.0,NW,3.5,-,N/A,,Clear,320,2013-09-14 22:35:00
6:55 PM,68.9,47.8,47,30.11,10.0,NW,3.5,-,N/A,,Scattered Clouds,320,2013-09-14 22:55:00
7:15 PM,67.1,49.5,53,30.11,10.0,North,3.5,-,N/A,,Clear,360,2013-09-14 23:15:00
7:35 PM,64.6,50.7,61,30.12,10.0,Calm,Calm,-,N/A,,Clear,0,2013-09-14 23:35:00
7:55 PM,61.0,51.6,71,30.13,10.0,Calm,Calm,-,N/A,,Clear,0,2013-09-14 23:55:00
8:15 PM,60.3,51.8,74,30.14,10.0,Calm,Calm,-,N/A,,Clear,0,2013-09-15 00:15:00
8:35 PM,59.0,52.2,78,30.15,10.0,Calm,Calm,-,N/A,,Clear,0,2013-09-15 00:35:00
8:55 PM,56.5,50.4,80,30.16,10.0,Calm,Calm,-,N/A,,Clear,0,2013-09-15 00:55:00
9:15 PM,56.5,51.3,83,30.16,10.0,Calm,Calm,-,N/A,,Clear,0,2013-09-15 01:15:00
9:35 PM,55.8,51.1,84,30.17,10.0,Calm,Calm,-,N/A,,Clear,0,2013-09-15 01:35:00
9:55 PM,55.2,50.9,85,30.17,10.0,Calm,Calm,-,N/A,,Clear,0,2013-09-15 01:55:00
10:15 PM,56.1,51.3,84,30.17,10.0,Calm,Calm,-,N/A,,Clear,0,2013-09-15 02:15:00
10:35 PM,55.0,50.7,85,30.17,10.0,Calm,Calm,-,N/A,,Clear,0,2013-09-15 02:35:00
10:55 PM,54.5,50.9,88,30.17,10.0,Calm,Calm,-,N/A,,Clear,0,2013-09-15 02:55:00
11:15 PM,54.0,50.2,87,30.18,10.0,Calm,Calm,-,N/A,,Clear,0,2013-09-15 03:15:00
11:35 PM,53.2,49.5,87,30.18,10.0,Calm,Calm,-,N/A,,Clear,0,2013-09-15 03:35:00
11:55 PM,54.0,50.4,88,30.18,10.0,NNW,4.6,-,N/A,,Clear,340,2013-09-15 03:55:00